Location: Amherst
(42.5000°N, 72.5000°W)
Time: 14:45:08
(UTC-05:00)

ISS - Visible Passes

Search period start: 18 November 2017 00:00
Search period end: 28 November 2017 00:00
Orbit: 402 x 407 km, 51.6° (Epoch: 19 November)

Date Brightness Start Highest point End Pass type
(mag) Time Alt. Az. Time Alt. Az. Time Alt. Az.
18 Nov -0.8 04:09:25 14° ESE 04:09:25 14° ESE 04:10:00 10° ESE visible
18 Nov -1.6 05:42:06 12° WSW 05:42:49 13° SW 05:44:18 10° SSW visible
19 Nov -1.5 04:52:26 16° S 04:52:26 16° S 04:53:25 10° S visible
25 Nov -1.4 17:52:05 10° SSE 17:52:55 12° SSE 17:52:55 12° SSE visible
26 Nov -1.7 18:34:19 10° SW 18:35:45 23° SW 18:35:45 23° SW visible
27 Nov -2.8 17:42:21 10° SSW 17:45:17 31° SE 17:45:48 29° ESE visible
